TEVEL2-9

Last updated on Mon Sep 15 2025 00:03:10 GMT+0000 (Coordinated Universal Time)

1 63237U 25052AD 25256.66456583 .00010854 00000+0 48902-3 0 9991 2 63237 97.4208 149.0740 0009423 50.7796 309.4275 15.21188171 27835
UTC large
Height (km)
Speed (km/s)
/
Latitude / Longitude
Inclination (degrees)
Orbital Period (minutes)
Azimuth
Elevation
Range (km)
Doppler Factor

Next 0 passes for location: London (51.5072 / 0.1276)

Sorry there are no passes over London.